STARLINK-38091, 69997

Orbit data source: Space-Track

STARLINK-38091, 69997 is a payload satellite owned by SpaceX/Seattle (US) in SSO that was launched on Sat, 11 Jul 2026 UTC via an FALCON 9 launch vehicle from the Air Force Western Test Range (AFWTR). Payload-class satellites include a variety of spacecraft equipped with specific instruments for various scientific and technological missions. These include communications satellites like Starlink; space stations such as the ISS; scientific satellites like the Hubble; Earth observation satellites from companies like Planet Labs, Umbra, and HawkEye 360; GPS; miniature CubeSats for education and research; and military/defense satellites.

Loading next visibility...
Identifier
69997, 2026-159Y
Orbit
SSO
Country
Flag of USUS
Related business
Manufacturer
SpaceX/Seattle
Mission
Operational spacecraft
Bus & Motor
STARLINK V2MO, Unknown motor
Mass
575 kg wet, ~530 kg dry
Launch date (UTC)
2026-07-11 (2 months ago)
Launch vehicle
FALCON 9
Launch site
Air Force Western Test Range (AFWTR)
Object type
Payload
Rocket body
Debris
Shape & HBR
BOX + PAN, 17.7 m
Radar Cross Section
Large (>1 m²)

Expand to show TLE details & history
Last TLE update: 9 hours ago

TLE from 9 hours ago
0 STARLINK-38091
1 69997U 26159Y   26264.58335648  .00009868  00000-0  27519-3 0  9993
2 69997  97.2846 106.4948 0001177  78.9834 152.9519 15.36956912  6000
Epoch: 2026-09-21T14:00Z
TLE epoch observation values (Epoch: 2026-09-21T14:00:01.999Z)
Latitude
-51.6095°
Longitude
66.79269°
Altitude
475.93 km
Speed
7.626 km/s
True Right ascension
18h 29m 02s
True Declination
-51° 26' 06"
Sunlit
Object was in daylight at epoch
Visualization orbit readout
Latitude
Unknown
Longitude
Unknown
Altitude
Unknown
Speed
Unknown
Apparent Right ascension
Unknown
Apparent Declination
Unknown
Sunlit
N/A
Visualization observer readout
Local Sidereal Time
16:21:16
Azimuth
Unknown
Elevation
Unknown
Doppler factor
Unknown
Orbital elements
Apogee altitude
452.856 km
Perigee altitude
451.248 km
Semi-major axis
6,830.189 km
Eccentricity
0.00012
Inclination
97.2846°
RAAN
106.4948°
Arg. of periapsis
78.9834°
True anomaly
152.95803°
Mean anomaly
152.9519°
Eccentric anomaly
152.95497°
Mean motion
3.84498 °/min
Orbital period
93.63 mins
BSTAR
0.00027519
Loading maneuver chart data...
Computing Atmospheric mass density...
Loading historical data...
Loading historical data...
Loading historical data...
Loading historical data...
Loading historical data...
Loading historical data...
Loading historical data...

Documentation

Showing up to 5 results
|